date,time,SUV Intensity [MED/Hr],UV Index,Daily total [MED],Since Last [MED]
30/04/2023,00:01:13,0.000,0.0,0.0,0.0
30/04/2023,00:02:12,0.000,0.0,0.0,0.0
30/04/2023,00:03:12,-0.001,0.0,0.0,0.0
30/04/2023,00:04:12,0.001,0.0,0.0,0.0
30/04/2023,00:05:12,-0.000,0.0,0.0,0.0
30/04/2023,00:06:12,0.001,0.0,0.0,0.0
30/04/2023,00:07:12,-0.001,0.0,0.0,0.0
30/04/2023,00:08:12,0.000,0.0,0.0,0.0
30/04/2023,00:09:13,0.000,0.0,0.0,0.0
30/04/2023,00:10:12,0.001,0.0,0.0,0.0
30/04/2023,00:11:12,0.000,0.0,0.0,0.0
30/04/2023,00:12:12,-0.001,0.0,0.0,0.0
30/04/2023,00:13:12,-0.000,0.0,0.0,0.0
30/04/2023,00:14:12,0.001,0.0,0.0,0.0
30/04/2023,00:15:12,-0.001,0.0,0.0,0.0
30/04/2023,00:16:12,-0.000,0.0,0.0,0.0
30/04/2023,00:17:12,0.001,0.0,0.0,0.0
30/04/2023,00:18:12,-0.000,0.0,0.0,0.0
30/04/2023,00:19:12,0.000,0.0,0.0,0.0
30/04/2023,00:20:12,-0.001,0.0,0.0,0.0
30/04/2023,00:21:12,0.000,0.0,0.0,0.0
30/04/2023,00:22:12,0.000,0.0,0.0,0.0
30/04/2023,00:23:12,0.000,0.0,0.0,0.0
30/04/2023,00:24:12,0.000,0.0,0.0,0.0
30/04/2023,00:25:12,0.000,0.0,0.0,0.0
30/04/2023,00:26:12,0.000,0.0,0.0,0.0
30/04/2023,00:27:12,-0.001,0.0,0.0,0.0
30/04/2023,00:28:13,0.000,0.0,0.0,0.0
30/04/2023,00:29:12,0.000,0.0,0.0,0.0
30/04/2023,00:30:12,0.000,0.0,0.0,0.0
30/04/2023,00:31:12,0.000,0.0,0.0,0.0
30/04/2023,00:32:12,-0.001,0.0,0.0,0.0
30/04/2023,00:33:12,-0.000,0.0,0.0,0.0
30/04/2023,00:34:12,0.000,0.0,0.0,0.0
30/04/2023,00:35:13,0.000,0.0,0.0,0.0
30/04/2023,00:36:12,-0.000,0.0,0.0,0.0
30/04/2023,00:37:12,0.000,0.0,0.0,0.0
30/04/2023,00:38:12,0.000,0.0,0.0,0.0
30/04/2023,00:39:11,0.000,0.0,0.0,0.0
30/04/2023,00:40:12,0.000,0.0,0.0,0.0
30/04/2023,00:41:14,-0.001,0.0,0.0,0.0
30/04/2023,00:42:12,0.000,0.0,0.0,0.0
30/04/2023,00:43:12,-0.001,0.0,0.0,0.0
30/04/2023,00:44:12,0.000,0.0,0.0,0.0
30/04/2023,00:45:12,0.001,0.0,0.0,0.0
30/04/2023,00:46:13,-0.000,0.0,0.0,0.0
30/04/2023,00:47:13,0.000,0.0,0.0,0.0
30/04/2023,00:48:12,-0.001,0.0,0.0,0.0
30/04/2023,00:49:12,0.000,0.0,0.0,0.0
30/04/2023,00:50:14,0.000,0.0,0.0,0.0
30/04/2023,00:51:12,0.001,0.0,0.0,0.0
30/04/2023,00:52:13,0.000,0.0,0.0,0.0
30/04/2023,00:53:12,-0.000,0.0,0.0,0.0
30/04/2023,00:54:13,0.000,0.0,0.0,0.0
30/04/2023,00:55:12,0.001,0.0,0.0,0.0
30/04/2023,00:56:12,0.001,0.0,0.0,0.0
30/04/2023,00:57:12,0.000,0.0,0.0,0.0
30/04/2023,00:58:12,0.000,0.0,0.0,0.0
30/04/2023,00:59:12,0.000,0.0,0.0,0.0
30/04/2023,01:00:12,0.000,0.0,0.0,0.0
30/04/2023,01:01:12,0.000,0.0,0.0,0.0
30/04/2023,01:02:12,0.000,0.0,0.0,0.0
30/04/2023,01:03:12,0.000,0.0,0.0,0.0
30/04/2023,01:04:12,0.000,0.0,0.0,0.0
30/04/2023,01:05:12,-0.000,0.0,0.0,0.0
30/04/2023,01:06:12,0.000,0.0,0.0,0.0
30/04/2023,01:07:12,0.000,0.0,0.0,0.0
30/04/2023,01:08:12,0.002,0.0,0.0,0.0
30/04/2023,01:09:12,-0.000,0.0,0.0,0.0
30/04/2023,01:10:12,0.001,0.0,0.0,0.0
30/04/2023,01:11:12,0.001,0.0,0.0,0.0
30/04/2023,01:12:12,0.001,0.0,0.0,0.0
30/04/2023,01:13:12,0.000,0.0,0.0,0.0
30/04/2023,01:14:12,-0.001,0.0,0.0,0.0
30/04/2023,01:15:13,0.000,0.0,0.0,0.0
30/04/2023,01:16:12,0.000,0.0,0.0,0.0
30/04/2023,01:17:12,0.001,0.0,0.0,0.0
30/04/2023,01:18:12,-0.001,0.0,0.0,0.0
30/04/2023,01:19:12,0.000,0.0,0.0,0.0
30/04/2023,01:20:12,0.000,0.0,0.0,0.0
30/04/2023,01:21:13,0.000,0.0,0.0,0.0
30/04/2023,01:22:16,0.001,0.0,0.0,0.0
30/04/2023,01:23:13,0.001,0.0,0.0,0.0
30/04/2023,01:24:12,0.001,0.0,0.0,0.0
30/04/2023,01:25:12,0.001,0.0,0.0,0.0
30/04/2023,01:26:13,0.001,0.0,0.0,0.0
30/04/2023,01:27:12,0.001,0.0,0.0,0.0
30/04/2023,01:28:12,0.001,0.0,0.0,0.0
30/04/2023,01:29:13,0.000,0.0,0.0,0.0
30/04/2023,01:30:12,-0.000,0.0,0.0,0.0
30/04/2023,01:31:12,0.001,0.0,0.0,0.0
30/04/2023,01:32:12,-0.000,0.0,0.0,0.0
30/04/2023,01:33:12,0.001,0.0,0.0,0.0
30/04/2023,01:34:12,-0.000,0.0,0.0,0.0
30/04/2023,01:35:13,0.000,0.0,0.0,0.0
30/04/2023,01:36:12,0.001,0.0,0.0,0.0
30/04/2023,01:37:13,0.001,0.0,0.0,0.0
30/04/2023,01:38:12,0.001,0.0,0.0,0.0
30/04/2023,01:39:12,0.000,0.0,0.0,0.0
30/04/2023,01:40:13,0.001,0.0,0.0,0.0
30/04/2023,01:41:13,0.001,0.0,0.0,0.0
30/04/2023,01:42:13,-0.000,0.0,0.0,0.0
30/04/2023,01:43:12,0.000,0.0,0.0,0.0
30/04/2023,01:44:12,0.000,0.0,0.0,0.0
30/04/2023,01:45:12,0.001,0.0,0.0,0.0
30/04/2023,01:46:12,0.001,0.0,0.0,0.0
30/04/2023,01:47:12,0.001,0.0,0.0,0.0
30/04/2023,01:48:12,0.001,0.0,0.0,0.0
30/04/2023,01:49:12,0.001,0.0,0.0,0.0
30/04/2023,01:50:12,0.001,0.0,0.0,0.0
30/04/2023,01:51:12,-0.000,0.0,0.0,0.0
30/04/2023,01:52:12,0.000,0.0,0.0,0.0
30/04/2023,01:53:11,0.001,0.0,0.0,0.0
30/04/2023,01:54:12,-0.000,0.0,0.0,0.0
30/04/2023,01:55:12,0.000,0.0,0.0,0.0
30/04/2023,01:56:12,0.000,0.0,0.0,0.0
30/04/2023,01:57:12,-0.000,0.0,0.0,0.0
30/04/2023,01:58:12,0.001,0.0,0.0,0.0
30/04/2023,01:59:13,0.001,0.0,0.0,0.0
30/04/2023,02:00:12,0.001,0.0,0.0,0.0
30/04/2023,02:01:12,0.001,0.0,0.0,0.0
30/04/2023,02:02:12,0.001,0.0,0.0,0.0
30/04/2023,02:03:12,0.001,0.0,0.0,0.0
30/04/2023,02:04:14,0.001,0.0,0.0,0.0
30/04/2023,02:05:13,0.000,0.0,0.0,0.0
30/04/2023,02:06:12,0.001,0.0,0.0,0.0
30/04/2023,02:07:12,0.001,0.0,0.0,0.0
30/04/2023,02:08:12,0.001,0.0,0.0,0.0
30/04/2023,02:09:13,0.001,0.0,0.0,0.0
30/04/2023,02:10:12,0.001,0.0,0.0,0.0
30/04/2023,02:11:12,0.001,0.0,0.0,0.0
30/04/2023,02:12:12,-0.000,0.0,0.0,0.0
30/04/2023,02:13:13,0.001,0.0,0.0,0.0
30/04/2023,02:14:14,0.001,0.0,0.0,0.0
30/04/2023,02:15:13,0.001,0.0,0.0,0.0
30/04/2023,02:16:12,0.001,0.0,0.0,0.0
30/04/2023,02:17:12,0.001,0.0,0.0,0.0
30/04/2023,02:18:12,0.001,0.0,0.0,0.0
30/04/2023,02:19:12,0.001,0.0,0.0,0.0
30/04/2023,02:20:12,-0.000,0.0,0.0,0.0
30/04/2023,02:21:13,0.000,0.0,0.0,0.0
30/04/2023,02:22:13,0.001,0.0,0.0,0.0
30/04/2023,02:23:12,0.001,0.0,0.0,0.0
30/04/2023,02:24:12,0.001,0.0,0.0,0.0
30/04/2023,02:25:12,0.002,0.0,0.0,0.0
30/04/2023,02:26:12,0.002,0.0,0.0,0.0
30/04/2023,02:27:13,0.001,0.0,0.0,0.0
30/04/2023,02:28:13,0.001,0.0,0.0,0.0
30/04/2023,02:29:13,0.001,0.0,0.0,0.0
30/04/2023,02:30:12,0.002,0.0,0.0,0.0
30/04/2023,02:31:12,0.002,0.0,0.0,0.0
30/04/2023,02:32:12,0.001,0.0,0.0,0.0
30/04/2023,02:33:12,0.001,0.0,0.0,0.0
30/04/2023,02:34:13,0.001,0.0,0.0,0.0
30/04/2023,02:35:13,0.000,0.0,0.0,0.0
30/04/2023,02:36:12,0.001,0.0,0.0,0.0
30/04/2023,02:37:12,0.001,0.0,0.0,0.0
30/04/2023,02:38:12,-0.000,0.0,0.0,0.0
30/04/2023,02:39:12,0.002,0.0,0.0,0.0
30/04/2023,02:40:12,0.001,0.0,0.0,0.0
30/04/2023,02:41:12,0.001,0.0,0.0,0.0
30/04/2023,02:42:12,0.001,0.0,0.0,0.0
30/04/2023,02:43:12,0.001,0.0,0.0,0.0
30/04/2023,02:44:12,0.001,0.0,0.0,0.0
30/04/2023,02:45:13,0.001,0.0,0.0,0.0
30/04/2023,02:46:13,0.001,0.0,0.0,0.0
30/04/2023,02:47:12,0.001,0.0,0.0,0.0
30/04/2023,02:48:13,0.001,0.0,0.0,0.0
30/04/2023,02:49:13,0.001,0.0,0.0,0.0
30/04/2023,02:50:13,0.002,0.0,0.0,0.0
30/04/2023,02:51:13,0.002,0.0,0.0,0.0
30/04/2023,02:52:13,0.001,0.0,0.0,0.0
30/04/2023,02:53:13,0.000,0.0,0.0,0.0
30/04/2023,02:54:14,0.000,0.0,0.0,0.0
30/04/2023,02:55:13,0.002,0.0,0.0,0.0
30/04/2023,02:56:12,0.000,0.0,0.0,0.0
30/04/2023,02:57:13,0.001,0.0,0.0,0.0
30/04/2023,02:58:13,0.001,0.0,0.0,0.0
30/04/2023,02:59:13,0.001,0.0,0.0,0.0
30/04/2023,03:00:13,0.001,0.0,0.0,0.0
30/04/2023,03:01:13,0.001,0.0,0.0,0.0
30/04/2023,03:02:12,0.001,0.0,0.0,0.0
30/04/2023,03:03:12,0.001,0.0,0.0,0.0
30/04/2023,03:04:12,0.002,0.0,0.0,0.0
30/04/2023,03:05:12,0.001,0.0,0.0,0.0
30/04/2023,03:06:12,0.001,0.0,0.0,0.0
30/04/2023,03:07:13,0.001,0.0,0.0,0.0
30/04/2023,03:08:13,-0.000,0.0,0.0,0.0
30/04/2023,03:09:12,0.002,0.0,0.0,0.0
30/04/2023,03:10:13,0.001,0.0,0.0,0.0
30/04/2023,03:11:13,0.001,0.0,0.0,0.0
30/04/2023,03:12:13,0.001,0.0,0.0,0.0
30/04/2023,03:13:12,0.002,0.0,0.0,0.0
30/04/2023,03:14:12,0.000,0.0,0.0,0.0
30/04/2023,03:15:13,0.002,0.0,0.0,0.0
30/04/2023,03:16:13,0.001,0.0,0.0,0.0
30/04/2023,03:17:12,0.002,0.0,0.0,0.0
30/04/2023,03:18:13,0.001,0.0,0.0,0.0
30/04/2023,03:19:13,0.001,0.0,0.0,0.0
30/04/2023,03:20:12,0.001,0.0,0.0,0.0
30/04/2023,03:21:13,0.001,0.0,0.0,0.0
30/04/2023,03:22:13,0.000,0.0,0.0,0.0
30/04/2023,03:23:13,0.001,0.0,0.0,0.0
30/04/2023,03:24:13,0.001,0.0,0.0,0.0
30/04/2023,03:25:13,0.000,0.0,0.0,0.0
30/04/2023,03:26:12,0.001,0.0,0.0,0.0
30/04/2023,03:27:12,0.001,0.0,0.0,0.0
30/04/2023,03:28:12,0.001,0.0,0.0,0.0
30/04/2023,03:29:12,0.001,0.0,0.0,0.0
30/04/2023,03:30:12,0.001,0.0,0.0,0.0
30/04/2023,03:31:13,0.001,0.0,0.0,0.0
30/04/2023,03:32:12,0.001,0.0,0.0,0.0
30/04/2023,03:33:12,0.000,0.0,0.0,0.0
30/04/2023,03:34:12,0.001,0.0,0.0,0.0
30/04/2023,03:35:12,0.001,0.0,0.0,0.0
30/04/2023,03:36:12,0.001,0.0,0.0,0.0
30/04/2023,03:37:12,0.000,0.0,0.0,0.0
30/04/2023,03:38:12,0.001,0.0,0.0,0.0
30/04/2023,03:39:12,0.001,0.0,0.0,0.0
30/04/2023,03:40:13,0.001,0.0,0.0,0.0
30/04/2023,03:41:13,0.001,0.0,0.0,0.0
30/04/2023,03:42:12,0.002,0.0,0.0,0.0
30/04/2023,03:43:13,0.002,0.0,0.0,0.0
30/04/2023,03:44:13,0.001,0.0,0.0,0.0
30/04/2023,03:45:13,0.001,0.0,0.0,0.0
30/04/2023,03:46:12,0.002,0.0,0.0,0.0
30/04/2023,03:47:13,0.001,0.0,0.0,0.0
30/04/2023,03:48:13,0.001,0.0,0.0,0.0
30/04/2023,03:49:13,0.000,0.0,0.0,0.0
30/04/2023,03:50:12,0.002,0.0,0.0,0.0
30/04/2023,03:51:13,0.001,0.0,0.0,0.0
30/04/2023,03:52:13,0.001,0.0,0.0,0.0
30/04/2023,03:53:12,0.000,0.0,0.0,0.0
30/04/2023,03:54:12,0.002,0.0,0.0,0.0
30/04/2023,03:55:12,0.001,0.0,0.0,0.0
30/04/2023,03:56:12,0.000,0.0,0.0,0.0
30/04/2023,03:57:12,0.001,0.0,0.0,0.0
30/04/2023,03:58:13,0.001,0.0,0.0,0.0
30/04/2023,03:59:13,0.000,0.0,0.0,0.0
30/04/2023,04:00:13,0.001,0.0,0.0,0.0
30/04/2023,04:01:13,0.001,0.0,0.0,0.0
30/04/2023,04:02:13,0.001,0.0,0.0,0.0
30/04/2023,04:03:13,0.001,0.0,0.0,0.0
30/04/2023,04:04:13,0.001,0.0,0.0,0.0
30/04/2023,04:05:12,0.001,0.0,0.0,0.0
30/04/2023,04:06:12,0.001,0.0,0.0,0.0
30/04/2023,04:07:12,0.001,0.0,0.0,0.0
30/04/2023,04:08:12,0.001,0.0,0.0,0.0
30/04/2023,04:09:13,0.001,0.0,0.0,0.0
30/04/2023,04:10:13,0.001,0.0,0.0,0.0
30/04/2023,04:11:13,0.000,0.0,0.0,0.0
30/04/2023,04:12:13,0.001,0.0,0.0,0.0
30/04/2023,04:13:13,0.001,0.0,0.0,0.0
30/04/2023,04:14:13,0.002,0.0,0.0,0.0
30/04/2023,04:15:12,0.002,0.0,0.0,0.0
30/04/2023,04:16:12,0.001,0.0,0.0,0.0
30/04/2023,04:17:12,0.002,0.0,0.0,0.0
30/04/2023,04:18:12,0.001,0.0,0.0,0.0
30/04/2023,04:19:12,0.002,0.0,0.0,0.0
30/04/2023,04:20:12,0.002,0.0,0.0,0.0
30/04/2023,04:21:12,0.002,0.0,0.0,0.0
30/04/2023,04:22:13,0.001,0.0,0.0,0.0
30/04/2023,04:23:12,0.002,0.0,0.0,0.0
30/04/2023,04:24:13,0.002,0.0,0.0,0.0
30/04/2023,04:25:12,0.001,0.0,0.0,0.0
30/04/2023,04:26:13,0.002,0.0,0.0,0.0
30/04/2023,04:27:13,0.002,0.0,0.0,0.0
30/04/2023,04:28:13,0.000,0.0,0.0,0.0
30/04/2023,04:29:13,0.003,0.0,0.0,0.0
30/04/2023,04:30:13,0.003,0.0,0.0,0.0
30/04/2023,04:31:13,0.003,0.0,0.0,0.0
30/04/2023,04:32:12,0.002,0.0,0.0,0.0
30/04/2023,04:33:13,0.002,0.0,0.0,0.0
30/04/2023,04:34:12,0.003,0.0,0.0,0.0
30/04/2023,04:35:13,0.003,0.0,0.0,0.0
30/04/2023,04:36:12,0.003,0.0,0.0,0.0
30/04/2023,04:37:12,0.003,0.0,0.0,0.0
30/04/2023,04:38:12,0.004,0.0,0.0,0.0
30/04/2023,04:39:12,0.003,0.0,0.0,0.0
30/04/2023,04:40:12,0.003,0.0,0.0,0.0
30/04/2023,04:41:13,0.005,0.0,0.0,0.0
30/04/2023,04:42:12,0.003,0.0,0.0,0.0
30/04/2023,04:43:13,0.003,0.0,0.0,0.0
30/04/2023,04:44:12,0.004,0.0,0.0,0.0
30/04/2023,04:45:12,0.003,0.0,0.0,0.0
30/04/2023,04:46:12,0.004,0.0,0.0,0.0
30/04/2023,04:47:12,0.006,0.0,0.0,0.0
30/04/2023,04:48:13,0.005,0.0,0.0,0.0
30/04/2023,04:49:13,0.006,0.0,0.0,0.0
30/04/2023,04:50:13,0.006,0.0,0.0,0.0
30/04/2023,04:51:13,0.005,0.0,0.0,0.0
30/04/2023,04:52:12,0.006,0.0,0.0,0.0
30/04/2023,04:53:12,0.006,0.0,0.0,0.0
30/04/2023,04:54:13,0.007,0.0,0.0,0.0
30/04/2023,04:55:13,0.007,0.0,0.0,0.0
30/04/2023,04:56:13,0.007,0.0,0.0,0.0
30/04/2023,04:57:12,0.007,0.0,0.001,0.001
30/04/2023,04:58:12,0.007,0.0,0.001,0.0
30/04/2023,04:59:12,0.008,0.0,0.001,0.0
30/04/2023,05:00:13,0.008,0.0,0.001,0.0
30/04/2023,05:01:12,0.009,0.0,0.001,0.0
30/04/2023,05:02:13,0.009,0.0,0.001,0.0
30/04/2023,05:03:13,0.009,0.0,0.001,0.0
30/04/2023,05:04:12,0.010,0.0,0.002,0.001
30/04/2023,05:05:12,0.011,0.0,0.002,0.0
30/04/2023,05:06:12,0.010,0.0,0.002,0.0
30/04/2023,05:07:12,0.011,0.0,0.002,0.0
30/04/2023,05:08:12,0.011,0.0,0.002,0.0
30/04/2023,05:09:12,0.013,0.0,0.002,0.0
30/04/2023,05:10:13,0.012,0.0,0.003,0.001
30/04/2023,05:11:12,0.014,0.0,0.003,0.0
30/04/2023,05:12:13,0.013,0.0,0.003,0.0
30/04/2023,05:13:13,0.015,0.0,0.003,0.0
30/04/2023,05:14:13,0.014,0.0,0.004,0.001
30/04/2023,05:15:12,0.015,0.0,0.004,0.0
30/04/2023,05:16:13,0.015,0.0,0.004,0.0
30/04/2023,05:17:13,0.015,0.0,0.004,0.0
30/04/2023,05:18:13,0.015,0.0,0.005,0.001
30/04/2023,05:19:13,0.017,0.0,0.005,0.0
30/04/2023,05:20:12,0.017,0.0,0.005,0.0
30/04/2023,05:21:13,0.018,0.0,0.005,0.0
30/04/2023,05:22:13,0.018,0.0,0.006,0.001
30/04/2023,05:23:12,0.019,0.0,0.006,0.0
30/04/2023,05:24:12,0.020,0.0,0.006,0.0
30/04/2023,05:25:12,0.020,0.0,0.007,0.001
30/04/2023,05:26:12,0.023,0.0,0.007,0.0
30/04/2023,05:27:13,0.022,0.0,0.007,0.0
30/04/2023,05:28:12,0.022,0.0,0.008,0.001
30/04/2023,05:29:13,0.023,0.0,0.008,0.0
30/04/2023,05:30:13,0.024,0.0,0.008,0.0
30/04/2023,05:31:13,0.025,0.0,0.009,0.001
30/04/2023,05:32:13,0.026,0.0,0.009,0.0
30/04/2023,05:33:13,0.026,0.0,0.01,0.001
30/04/2023,05:34:12,0.027,0.0,0.01,0.0
30/04/2023,05:35:12,0.028,0.0,0.011,0.001
30/04/2023,05:36:13,0.029,0.0,0.011,0.0
30/04/2023,05:37:13,0.030,0.0,0.012,0.001
30/04/2023,05:38:12,0.031,0.0,0.012,0.0
30/04/2023,05:39:12,0.032,0.0,0.013,0.001
30/04/2023,05:40:13,0.033,0.0,0.013,0.0
30/04/2023,05:41:13,0.035,0.0,0.014,0.001
30/04/2023,05:42:13,0.035,0.0,0.014,0.0
30/04/2023,05:43:13,0.036,0.0,0.015,0.001
30/04/2023,05:44:12,0.037,0.0,0.016,0.001
30/04/2023,05:45:12,0.038,0.0,0.016,0.0
30/04/2023,05:46:13,0.039,0.0,0.017,0.001
30/04/2023,05:47:13,0.040,0.0,0.017,0.0
30/04/2023,05:48:13,0.042,0.0,0.018,0.001
30/04/2023,05:49:13,0.044,0.0,0.019,0.001
30/04/2023,05:50:13,0.044,0.0,0.02,0.001
30/04/2023,05:51:13,0.046,0.0,0.02,0.0
30/04/2023,05:52:12,0.046,0.0,0.021,0.001
30/04/2023,05:53:12,0.048,0.0,0.022,0.001
30/04/2023,05:54:13,0.049,0.0,0.023,0.001
30/04/2023,05:55:13,0.050,0.0,0.024,0.001
30/04/2023,05:56:13,0.053,0.0,0.024,0.0
30/04/2023,05:57:13,0.054,0.0,0.025,0.001
30/04/2023,05:58:13,0.056,0.0,0.026,0.001
30/04/2023,05:59:13,0.057,0.0,0.027,0.001
30/04/2023,06:00:13,0.058,0.0,0.028,0.001
30/04/2023,06:01:13,0.061,0.0,0.029,0.001
30/04/2023,06:02:13,0.061,0.0,0.03,0.001
30/04/2023,06:03:13,0.063,0.0,0.031,0.001
30/04/2023,06:04:12,0.065,0.0,0.032,0.001
30/04/2023,06:05:13,0.065,0.0,0.033,0.001
30/04/2023,06:06:13,0.067,0.0,0.034,0.001
30/04/2023,06:07:13,0.068,0.0,0.035,0.001
30/04/2023,06:08:12,0.071,0.0,0.037,0.002
30/04/2023,06:09:13,0.072,0.0,0.038,0.001
30/04/2023,06:10:13,0.074,0.0,0.039,0.001
30/04/2023,06:11:13,0.076,0.0,0.04,0.001
30/04/2023,06:12:13,0.078,0.0,0.042,0.002
30/04/2023,06:13:13,0.080,0.0,0.043,0.001
30/04/2023,06:14:13,0.083,0.0,0.044,0.001
30/04/2023,06:15:12,0.085,0.0,0.046,0.002
30/04/2023,06:16:13,0.087,0.0,0.047,0.001
30/04/2023,06:17:13,0.089,0.0,0.049,0.002
30/04/2023,06:18:13,0.092,0.0,0.05,0.001
30/04/2023,06:19:13,0.094,0.0,0.052,0.002
30/04/2023,06:20:13,0.097,0.0,0.053,0.001
30/04/2023,06:21:13,0.100,0.0,0.055,0.002
30/04/2023,06:22:13,0.102,0.0,0.057,0.002
30/04/2023,06:23:13,0.106,0.0,0.058,0.001
30/04/2023,06:24:13,0.109,0.0,0.06,0.002
30/04/2023,06:25:13,0.110,0.0,0.062,0.002
30/04/2023,06:26:13,0.112,0.0,0.064,0.002
30/04/2023,06:27:13,0.114,0.0,0.066,0.002
30/04/2023,06:28:13,0.117,0.0,0.068,0.002
30/04/2023,06:29:13,0.119,0.0,0.07,0.002
30/04/2023,06:30:13,0.121,0.0,0.071,0.001
30/04/2023,06:31:13,0.123,0.0,0.073,0.002
30/04/2023,06:32:13,0.125,0.0,0.076,0.003
30/04/2023,06:33:13,0.128,0.0,0.078,0.002
30/04/2023,06:34:13,0.130,0.0,0.08,0.002
30/04/2023,06:35:13,0.133,0.0,0.082,0.002
30/04/2023,06:36:12,0.135,0.0,0.084,0.002
30/04/2023,06:37:13,0.139,0.0,0.087,0.003
30/04/2023,06:38:13,0.141,0.0,0.089,0.002
30/04/2023,06:39:13,0.143,0.0,0.091,0.002
30/04/2023,06:40:13,0.144,0.0,0.094,0.003
30/04/2023,06:41:12,0.147,0.0,0.096,0.002
30/04/2023,06:42:13,0.147,0.0,0.098,0.002
30/04/2023,06:43:13,0.146,0.0,0.101,0.003
30/04/2023,06:44:12,0.148,0.0,0.103,0.002
30/04/2023,06:45:13,0.152,0.0,0.106,0.003
30/04/2023,06:46:13,0.154,0.0,0.108,0.002
30/04/2023,06:47:13,0.156,0.0,0.111,0.003
30/04/2023,06:48:13,0.161,0.0,0.114,0.003
30/04/2023,06:49:13,0.166,0.0,0.116,0.002
30/04/2023,06:50:12,0.167,0.0,0.119,0.003
30/04/2023,06:51:13,0.167,0.0,0.122,0.003
30/04/2023,06:52:13,0.170,0.0,0.125,0.003
30/04/2023,06:53:13,0.176,0.0,0.128,0.003
30/04/2023,06:54:13,0.180,0.0,0.131,0.003
30/04/2023,06:55:12,0.181,0.0,0.134,0.003
30/04/2023,06:56:13,0.186,0.0,0.137,0.003
30/04/2023,06:57:13,0.185,0.0,0.14,0.003
30/04/2023,06:58:13,0.190,0.0,0.143,0.003
30/04/2023,06:59:13,0.196,0.0,0.146,0.003
30/04/2023,07:00:12,0.196,0.0,0.149,0.003
30/04/2023,07:01:12,0.196,0.0,0.153,0.004
30/04/2023,07:02:13,0.196,0.0,0.156,0.003
30/04/2023,07:03:13,0.197,0.0,0.159,0.003
30/04/2023,07:04:13,0.200,0.0,0.163,0.004
30/04/2023,07:05:13,0.206,0.0,0.166,0.003
30/04/2023,07:06:13,0.208,0.0,0.169,0.003
30/04/2023,07:07:13,0.204,0.0,0.173,0.004
30/04/2023,07:08:13,0.208,0.0,0.176,0.003
30/04/2023,07:09:13,0.210,0.0,0.18,0.004
30/04/2023,07:10:13,0.215,0.0,0.183,0.003
30/04/2023,07:11:13,0.221,1.0,0.187,0.004
30/04/2023,07:12:13,0.230,1.0,0.191,0.004
30/04/2023,07:13:13,0.235,1.0,0.195,0.004
30/04/2023,07:14:13,0.239,1.0,0.198,0.003
30/04/2023,07:15:12,0.242,1.0,0.202,0.004
30/04/2023,07:16:13,0.244,1.0,0.206,0.004
30/04/2023,07:17:13,0.253,1.0,0.211,0.005
30/04/2023,07:18:13,0.258,1.0,0.215,0.004
30/04/2023,07:19:13,0.261,1.0,0.219,0.004
30/04/2023,07:20:13,0.264,1.0,0.224,0.005
30/04/2023,07:21:13,0.275,1.0,0.228,0.004
30/04/2023,07:22:13,0.285,1.0,0.233,0.005
30/04/2023,07:23:13,0.290,1.0,0.237,0.004
30/04/2023,07:24:13,0.300,1.0,0.243,0.006
30/04/2023,07:25:13,0.311,1.0,0.248,0.005
30/04/2023,07:26:12,0.310,1.0,0.253,0.005
30/04/2023,07:27:13,0.308,1.0,0.258,0.005
30/04/2023,07:28:13,0.311,1.0,0.263,0.005
30/04/2023,07:29:13,0.314,1.0,0.268,0.005
30/04/2023,07:30:13,0.312,1.0,0.273,0.005
30/04/2023,07:31:12,0.322,1.0,0.279,0.006
30/04/2023,07:32:13,0.310,1.0,0.284,0.005
30/04/2023,07:33:13,0.303,1.0,0.289,0.005
30/04/2023,07:34:13,0.313,1.0,0.294,0.005
30/04/2023,07:35:13,0.324,1.0,0.3,0.006
30/04/2023,07:36:12,0.327,1.0,0.305,0.005
30/04/2023,07:37:13,0.328,1.0,0.311,0.006
30/04/2023,07:38:13,0.327,1.0,0.316,0.005
30/04/2023,07:39:13,0.318,1.0,0.321,0.005
30/04/2023,07:40:12,0.331,1.0,0.327,0.006
30/04/2023,07:41:12,0.327,1.0,0.332,0.005
30/04/2023,07:42:13,0.325,1.0,0.338,0.006
30/04/2023,07:43:13,0.312,1.0,0.343,0.005
30/04/2023,07:44:13,0.316,1.0,0.348,0.005
30/04/2023,07:45:13,0.325,1.0,0.354,0.006
30/04/2023,07:46:13,0.334,1.0,0.359,0.005
30/04/2023,07:47:12,0.327,1.0,0.365,0.006
30/04/2023,07:48:12,0.329,1.0,0.37,0.005
30/04/2023,07:49:12,0.330,1.0,0.376,0.006
30/04/2023,07:50:13,0.332,1.0,0.381,0.005
30/04/2023,07:51:13,0.335,1.0,0.387,0.006
30/04/2023,07:52:13,0.341,1.0,0.392,0.005
30/04/2023,07:53:13,0.346,1.0,0.398,0.006
30/04/2023,07:54:13,0.350,1.0,0.404,0.006
30/04/2023,07:55:12,0.359,1.0,0.41,0.006
30/04/2023,07:56:13,0.367,1.0,0.416,0.006
30/04/2023,07:57:13,0.371,1.0,0.422,0.006
30/04/2023,07:58:13,0.380,1.0,0.428,0.006
30/04/2023,07:59:12,0.388,1.0,0.434,0.006
30/04/2023,08:00:12,0.405,1.0,0.441,0.007
30/04/2023,08:01:13,0.401,1.0,0.448,0.007
30/04/2023,08:02:13,0.394,1.0,0.454,0.006
30/04/2023,08:03:13,0.409,1.0,0.461,0.007
30/04/2023,08:04:13,0.392,1.0,0.468,0.007
30/04/2023,08:05:13,0.393,1.0,0.474,0.006
30/04/2023,08:06:13,0.410,1.0,0.481,0.007
30/04/2023,08:07:13,0.407,1.0,0.488,0.007
30/04/2023,08:08:13,0.412,1.0,0.495,0.007
30/04/2023,08:09:13,0.420,1.0,0.502,0.007
30/04/2023,08:10:13,0.430,1.0,0.509,0.007
30/04/2023,08:11:13,0.433,1.0,0.516,0.007
30/04/2023,08:12:13,0.450,1.0,0.523,0.007
30/04/2023,08:13:13,0.451,1.0,0.531,0.008
30/04/2023,08:14:13,0.454,1.0,0.538,0.007
30/04/2023,08:15:13,0.451,1.0,0.546,0.008
30/04/2023,08:16:13,0.439,1.0,0.554,0.008
30/04/2023,08:17:13,0.456,1.0,0.561,0.007
30/04/2023,08:18:13,0.465,1.0,0.569,0.008
30/04/2023,08:19:13,0.463,1.0,0.576,0.007
30/04/2023,08:20:13,0.469,1.0,0.584,0.008
30/04/2023,08:21:13,0.465,1.0,0.592,0.008
30/04/2023,08:22:13,0.458,1.0,0.599,0.007
30/04/2023,08:23:13,0.476,1.0,0.607,0.008
30/04/2023,08:24:13,0.486,1.0,0.615,0.008
30/04/2023,08:25:13,0.493,1.0,0.623,0.008
30/04/2023,08:26:13,0.501,1.0,0.632,0.009
30/04/2023,08:27:13,0.516,1.0,0.64,0.008
30/04/2023,08:28:13,0.518,1.0,0.649,0.009
30/04/2023,08:29:13,0.518,1.0,0.657,0.008
30/04/2023,08:30:13,0.549,1.0,0.666,0.009
30/04/2023,08:31:13,0.541,1.0,0.675,0.009
30/04/2023,08:32:13,0.555,1.0,0.685,0.01
30/04/2023,08:33:13,0.542,1.0,0.694,0.009
30/04/2023,08:34:12,0.570,1.0,0.703,0.009
30/04/2023,08:35:13,0.623,1.0,0.713,0.01
30/04/2023,08:36:13,0.624,1.0,0.723,0.01
30/04/2023,08:37:13,0.619,1.0,0.734,0.011
30/04/2023,08:38:13,0.619,1.0,0.744,0.01
30/04/2023,08:39:13,0.611,1.0,0.754,0.01
30/04/2023,08:40:42,0.627,1.0,0.769,0.015
30/04/2023,08:42:13,0.656,2.0,0.786,0.017
30/04/2023,08:43:13,0.709,2.0,0.797,0.011
30/04/2023,08:44:13,0.718,2.0,0.808,0.011
30/04/2023,08:45:13,0.750,2.0,0.821,0.013
30/04/2023,08:46:13,0.780,2.0,0.834,0.013
30/04/2023,08:47:13,0.799,2.0,0.847,0.013
30/04/2023,08:48:13,0.806,2.0,0.86,0.013
30/04/2023,08:49:13,0.804,2.0,0.873,0.013
30/04/2023,08:50:13,0.788,2.0,0.887,0.014
30/04/2023,08:51:13,0.834,2.0,0.9,0.013
30/04/2023,08:52:13,0.814,2.0,0.914,0.014
30/04/2023,08:53:13,0.856,2.0,0.928,0.014
30/04/2023,08:54:13,0.800,2.0,0.942,0.014
30/04/2023,08:55:13,0.796,2.0,0.955,0.013
30/04/2023,08:56:13,0.838,2.0,0.968,0.013
30/04/2023,08:57:13,0.845,2.0,0.983,0.015
30/04/2023,08:58:13,0.829,2.0,0.997,0.014
30/04/2023,08:59:13,0.849,2.0,1.011,0.014
30/04/2023,09:00:13,0.827,2.0,1.024,0.013
30/04/2023,09:01:13,0.822,2.0,1.038,0.014
30/04/2023,09:02:13,0.778,2.0,1.052,0.014
30/04/2023,09:03:13,0.842,2.0,1.065,0.013
30/04/2023,09:04:13,0.842,2.0,1.079,0.014
30/04/2023,09:05:13,0.851,2.0,1.093,0.014
30/04/2023,09:06:13,0.859,2.0,1.108,0.015
30/04/2023,09:07:13,0.768,2.0,1.121,0.013
30/04/2023,09:08:13,0.772,2.0,1.135,0.014
30/04/2023,09:09:13,0.742,2.0,1.147,0.012
30/04/2023,09:10:13,0.705,2.0,1.159,0.012
30/04/2023,09:11:13,0.742,2.0,1.171,0.012
30/04/2023,09:12:13,0.797,2.0,1.184,0.013
30/04/2023,09:13:14,0.860,2.0,1.198,0.014
30/04/2023,09:14:13,0.840,2.0,1.211,0.013
30/04/2023,09:15:13,0.807,2.0,1.226,0.015
30/04/2023,09:16:13,0.821,2.0,1.239,0.013
30/04/2023,09:17:14,0.907,2.0,1.253,0.014
30/04/2023,09:18:13,0.993,2.0,1.269,0.016
30/04/2023,09:19:13,1.045,2.0,1.286,0.017
30/04/2023,09:20:13,1.107,3.0,1.304,0.018
30/04/2023,09:21:14,1.096,3.0,1.323,0.019
30/04/2023,09:22:14,1.129,3.0,1.342,0.019
30/04/2023,09:23:13,1.129,3.0,1.361,0.019
30/04/2023,09:24:13,1.172,3.0,1.379,0.018
30/04/2023,09:25:14,1.197,3.0,1.4,0.021
30/04/2023,09:26:13,1.219,3.0,1.418,0.018
30/04/2023,09:27:13,1.043,2.0,1.437,0.019
30/04/2023,09:28:13,1.172,3.0,1.456,0.019
30/04/2023,09:29:13,0.980,2.0,1.474,0.018
30/04/2023,09:30:13,1.036,2.0,1.492,0.018
30/04/2023,09:31:13,1.055,2.0,1.51,0.018
30/04/2023,09:32:13,1.181,3.0,1.528,0.018
30/04/2023,09:33:13,1.018,2.0,1.546,0.018
30/04/2023,09:34:13,1.016,2.0,1.563,0.017
30/04/2023,09:35:13,1.206,3.0,1.581,0.018
30/04/2023,09:36:13,1.204,3.0,1.601,0.02
30/04/2023,09:37:13,1.164,3.0,1.621,0.02
30/04/2023,09:38:13,1.120,3.0,1.64,0.019
30/04/2023,09:39:14,1.050,2.0,1.659,0.019
30/04/2023,09:40:13,1.063,2.0,1.676,0.017
30/04/2023,09:41:13,1.040,2.0,1.693,0.017
30/04/2023,09:42:13,1.106,3.0,1.711,0.018
30/04/2023,09:43:13,1.079,2.0,1.729,0.018
30/04/2023,09:44:13,1.117,3.0,1.748,0.019
30/04/2023,09:45:13,1.074,2.0,1.765,0.017
30/04/2023,09:46:14,0.998,2.0,1.783,0.018
30/04/2023,09:47:13,1.018,2.0,1.799,0.016
30/04/2023,09:48:13,1.052,2.0,1.816,0.017
30/04/2023,09:49:13,0.932,2.0,1.833,0.017
30/04/2023,09:50:13,0.934,2.0,1.849,0.016
30/04/2023,09:51:13,0.947,2.0,1.864,0.015
30/04/2023,09:52:13,0.899,2.0,1.88,0.016
30/04/2023,09:53:13,0.848,2.0,1.895,0.015
30/04/2023,09:54:13,0.834,2.0,1.908,0.013
30/04/2023,09:55:14,0.820,2.0,1.922,0.014
30/04/2023,09:56:14,0.814,2.0,1.936,0.014
30/04/2023,09:57:14,0.807,2.0,1.95,0.014
30/04/2023,09:58:14,0.800,2.0,1.963,0.013
30/04/2023,09:59:14,0.800,2.0,1.976,0.013
30/04/2023,10:00:13,0.800,2.0,1.989,0.013